Find Starlink 11593

NORAD ID: 63318 Int'l Des: 2025-057 Owner: SPXS Country: US Constellation: starlink operational
又名: STARLINK-11593 [DTC] celestrak
LEOCIRCULAR

当前视图

正在加载3D地球...

About Starlink 11593

Starlink 11593 (NORAD 63318) is a starlink constellation satellite (v2 mini d2c) launched Mar 18, 2025 by SPXS of US. It operates in LEO, CIRCULAR orbit with a mass of 960.00 kg.

即将过境

Passes for default location (London). Set your location on the main map for personalized predictions.

高度历史

Loading altitude history...

两行轨道根数

1 63318U 25057M 26264.41906160 .00141901 00000-0 10877-2 0 9998
2 63318 42.9989 164.4764 0000973 19.2249 340.8655 15.70902211 87994
Epoch: Sep 21, 2026 • Age: 13 hours

当前状态

高度 360.3 km
远地点 / 近地点 N/A
速度 7.69 km/s
星下点 -18.17°S, 13.72°E
发射日期 Mar 18, 2025
运行时间 1.5 years
类型 internet

技术详情

分类 Payload
质量 960.00 kg
干质量 910.00 kg
长度 0.30 m
跨度 29.00 m
形状 ? Box + pan
制造商 SPXS
平台类型 Starlink V2MD
阶段状态 In Orbit
所有者/国家 SPXS/US

Most Searched